#timestamp,LO_Frequency,Hit,StdDev 
1458230415.9,286047006.0,N
1458230435.7,286047005.0,N
1458230455.5,286047004.2,N
1458230475.4,286047001.5,N
1458230495.2,286047003.6,N
1458230515.0,286047003.3,N
1458230515.9,286047003.3,N
1458230535.8,286047003.2,N
1458230555.6,286047000.1,N
1458230575.4,286047002.5,N
1458230595.3,286046996.6,N
1458230615.1,286046998.1,N
1458230635.9,286046996.5,N
1458230655.7,286046999.2,N
1458230675.5,286046998.4,N
1458230695.3,286046997.9,N
1458230715.2,286046995.2,N
1458230735.0,286046993.3,N
1458230735.9,286046993.3,N
1458230755.7,286046991.8,N
1458230775.6,286046994.5,N
1458230795.4,286046993.3,N
1458230815.2,286046994.9,N
1458230835.1,286046998.5,N
1458230836.0,286046998.5,N
1458230855.8,286046999.7,N
1458230875.6,286047000.9,N
1458230895.5,286047000.8,N
1458230915.3,286047004.0,N
1458230935.1,286047005.2,N
1458230955.9,286047007.6,N
1458230975.7,286047007.5,N
1458230995.5,286047007.3,N
1458231015.4,286047010.2,N
1458231035.2,286047011.5,N
1458231055.0,286047012.2,N
1458231055.9,286047012.2,N
1458231075.8,286047011.7,N
1458231095.6,286047011.2,N
1458231115.4,286047010.5,N
1458231135.3,286047011.2,N
1458231155.1,286047011.0,N
1458231156.0,286047011.0,N
1458231175.8,286047009.9,N
1458231195.7,286047013.5,N
1458231215.5,286047016.7,N
1458231235.3,286047012.9,N
1458231255.1,286047012.2,N
1458231275.9,286047009.6,N
1458231295.7,286047007.7,N
1458231315.5,286047010.3,N
1458231335.4,286047013.3,N
1458231355.2,286047015.1,N
1458231375.0,286047014.3,N
1458231375.9,286047014.3,Y
1458231395.8,286047003.0,P
1458231415.6,286047004.0,N
1458231435.4,286047006.0,N
1458231455.3,286047004.1,N
1458231475.1,286046998.3,N
1458231495.8,286047000.8,N
1458231515.7,286046999.1,N
1458231535.5,286046997.2,N
1458231555.3,286046997.5,N
1458231575.2,286046997.2,N
1458231595.9,286046994.1,N
1458231615.7,286046992.0,N
1458231635.6,286046992.4,N
1458231655.4,286046993.6,N
1458231675.2,286046991.6,N
1458231695.0,286046989.5,N
1458231695.9,286046989.5,N
1458231715.8,286046987.1,N
1458231735.6,286046987.5,N
1458231755.4,286046985.5,N
1458231775.3,286046987.4,N
1458231795.1,286046987.0,N
1458231815.8,286046985.6,N
1458231835.7,286046989.8,N
1458231855.5,286046989.1,N
1458231875.3,286046987.5,N
1458231895.2,286046990.0,N
1458231915.9,286046986.4,N
1458231935.7,286046984.0,N
1458231955.6,286046983.4,N
1458231975.4,286046982.8,N
1458231995.2,286046982.3,N
1458232015.1,286046981.2,Y
1458232016.0,286046981.2,P
1458232035.8,286046987.0,N
1458232055.6,286046987.0,P
1458232075.4,286046992.9,N
1458232095.3,286046989.1,N
1458232115.1,286046990.6,N
1458232135.8,286046997.8,N
1458232155.7,286046995.9,N
1458232175.5,286046992.3,N
1458232195.3,286046990.5,N
1458232215.2,286046992.4,N
1458232235.9,286046990.4,N
1458232255.7,286046991.4,N
1458232275.6,286046994.4,N
1458232295.4,286046992.3,N
1458232315.2,286046993.1,N
1458232335.1,286046990.5,N
1458232336.0,286046990.5,N
1458232355.8,286046991.2,N
1458232375.6,286046991.3,N
1458232395.5,286046989.6,Y
1458232415.3,286046993.3,P
1458232435.1,286046995.0,P
1458232455.9,286046991.9,P
1458232475.7,286046990.7,Y
1458232495.5,286046999.7,P
1458232515.4,286047003.1,N
1458232535.2,286047005.1,N
1458232555.0,286047005.5,N
1458232555.9,286047005.5,N
1458232575.8,286047003.6,N
1458232595.6,286047003.6,N
1458232615.4,286047002.6,N
1458232635.2,286047001.9,N
1458232655.1,286047003.2,N
1458232656.0,286047003.2,N
1458232675.8,286047005.1,N
1458232695.6,286047004.4,N
1458232715.5,286047004.3,N
1458232735.3,286047004.8,N
1458232755.1,286047004.6,N
1458232775.9,286047001.3,N
1458232795.7,286047000.2,N
1458232815.5,286047000.9,N
1458232835.4,286047000.9,N
1458232855.2,286047002.8,N
1458232875.0,286047000.9,N
1458232875.9,286047000.9,N
1458232895.8,286046999.4,N
1458232915.6,286046995.8,N
1458232935.4,286046994.1,N
1458232955.2,286046994.9,N
1458232975.1,286046993.8,N
1458232976.0,286046993.8,N
1458232995.8,286046995.9,N
1458233015.6,286046998.9,N
1458233035.5,286046998.9,N
1458233055.3,286046999.7,N
1458233075.1,286046998.1,N
1458233095.9,286046997.1,N
1458233115.7,286046995.0,N
1458233135.5,286046995.1,N
1458233155.4,286046993.6,N
1458233175.2,286046997.8,N
1458233195.0,286046997.8,N
1458233195.9,286046997.8,N
1458233215.8,286046996.8,N
1458233235.6,286046993.7,N
1458233255.4,286046993.9,N
1458233275.3,286046991.9,N
1458233295.1,286046994.2,N
1458233296.0,286046994.2,N
1458233315.8,286046996.1,N
1458233335.7,286046992.0,N
1458233355.5,286046993.7,N
1458233375.3,286046996.0,N
1458233395.2,286046993.6,N
1458233415.9,286046993.0,Y
1458233435.7,286046997.9,P
1458233455.6,286046995.5,P
1458233475.4,286046997.0,N
1458233495.2,286046998.0,N
1458233515.1,286046995.1,Y
1458233516.0,286046995.1,P
1458233535.8,286046999.4,N
1458233555.6,286047002.0,N
1458233575.5,286047002.0,N
1458233595.3,286046999.7,N
1458233615.1,286047002.6,N
1458233635.8,286047001.3,N
1458233655.7,286047002.6,N
1458233675.5,286047003.4,N
1458233695.3,286047003.6,N
1458233715.2,286047001.3,N
1458233735.9,286046998.5,N
1458233755.7,286046998.7,N
1458233775.6,286046997.9,N
1458233795.4,286046997.0,N
1458233815.2,286046999.5,N
1458233835.1,286046999.4,N
1458233836.0,286046999.4,N
1458233855.8,286046999.1,N
1458233875.6,286046996.9,N
1458233895.4,286046997.2,N
1458233915.3,286046995.5,N
1458233935.1,286046993.4,N
1458233955.8,286046993.2,N
1458233975.7,286046989.0,Y
1458233995.5,286046989.2,P
